Location: Petruro
(41.0333°N, 14.7833°E)
Time: 09:23:22
(UTC+00:00)

ADEOS II - Pass Details

Date: 20 June 2021
Orbit: 800 x 800 km, 98.6° (Epoch: 27 July)

Event Time Altitude Azimuth Distance (km) Brightness Sun altitude
Rises 01:26:14 0° 11° (N) 3,318 6.5 -17.4°
Reaches altitude 10° 01:28:35 10° 9° (N) 2,384 5.5 -17.2°
Maximum altitude 01:33:49 71° 286° (WNW) 845 2.1 -16.6°
Enters shadow 01:36:49 26° 208° (SSW) 1,529 2.9 -16.3°
